FW3958 Weather Reports


Display with metric or nautical units.
time (UTC)temp
F
wind
direction
speed
MPH
gust
MPH
rain 1hr
in
rain 24hr
in
rain mn
in
humidity
%
barometer
mb
20260904184600 64 132 3.0 11.0 0.00 0.14 0.00 80 1014.6
20260904183039 64 85 2.0 9.0 0.00 0.14 0.00 80 1014.6
20260904181535 64 72 2.0 12.0 0.00 0.14 0.00 80 1014.6
20260904180030 64 95 3.0 11.0 0.00 0.14 0.00 83 1014.6
20260904174600 63 21 3.0 11.0 0.00 0.14 0.00 84 1014.5
20260904173025 62 133 0.0 6.0 0.00 0.14 0.00 92 1014.5
20260904171522 61 114 0.0 5.0 0.00 0.14 0.00 93 1014.4
20260904170036 59 95 0.0 4.0 0.00 0.22 0.00 97 1014.3
20260904164516 57 68 0.0 4.0 0.00 0.22 0.00 98 1014.4
20260904163011 56 80 0.0 2.0 0.00 0.22 0.00 100 1014.4
20260904161509 55 43 0.0 0.0 0.00 0.22 0.00 100 1014.4
20260904160006 55 38 0.0 1.0 0.00 0.30 0.00 100 1014.3
20260904154503 54 68 0.0 0.0 0.00 0.30 0.00 100 1014.2
20260904153128 53 68 0.0 1.0 0.00 0.30 0.00 100 1014.0
20260904151605 51 41 0.0 0.0 0.00 0.30 0.00 100 1013.7
20260904150056 51 41 0.0 0.0 0.00 0.32 0.00 100 1013.7
20260904144556 50 41 0.0 0.0 0.00 0.32 0.00 100 1013.7
20260904143054 49 41 0.0 0.0 0.00 0.32 0.00 100 1013.5
20260904141552 49 90 0.0 0.0 0.00 0.32 0.00 100 1013.3
20260904140050 49 90 0.0 0.0 0.00 0.42 0.00 100 1013.0
20260904134548 48 90 0.0 0.0 0.00 0.42 0.00 100 1012.8
20260904133047 49 105 0.0 0.0 0.00 0.42 0.00 100 1012.6
20260904131545 49 105 0.0 0.0 0.00 0.42 0.00 100 1012.6
20260904130043 50 105 0.0 0.0 0.00 0.51 0.00 100 1012.7
20260904124542 50 105 0.0 0.0 0.00 0.51 0.00 100 1012.6
20260904123040 51 105 0.0 0.0 0.00 0.51 0.00 100 1012.6
20260904121640 51 102 0.0 0.0 0.00 0.51 0.00 100 1012.3
20260904120038 52 103 0.0 3.0 0.00 0.94 0.00 100 1012.2
20260904114536 51 53 0.0 1.0 0.00 0.94 0.00 100 1012.1
20260904113036 50 53 0.0 0.0 0.00 0.94 0.00 100 1012.1
20260904111535 51 53 0.0 2.0 0.00 0.94 0.00 100 1012.0
20260904110036 50 53 0.0 0.0 0.00 1.04 0.00 100 1011.9
20260904104531 51 53 0.0 0.0 0.00 1.04 0.00 100 1012.0
20260904103031 51 53 0.0 1.0 0.00 1.04 0.00 100 1012.0
20260904101530 51 52 0.0 0.0 0.00 1.04 0.00 100 1012.0
20260904100029 52 52 0.0 0.0 0.00 1.41 0.00 100 1012.1
20260904094527 52 52 0.0 1.0 0.00 1.41 0.00 100 1012.0
20260904093051 52 52 0.0 0.0 0.00 1.41 0.00 100 1012.1
20260904091527 52 52 0.0 1.0 0.00 1.41 0.00 100 1012.1
20260904090025 51 52 0.0 0.0 0.00 1.61 0.00 100 1012.1
20260904084525 51 52 0.0 0.0 0.00 1.61 0.00 100 1012.2
20260904083023 51 52 0.0 0.0 0.00 1.61 0.00 100 1012.0
20260904081521 52 53 0.0 2.0 0.00 1.61 0.00 100 1012.0
20260904080020 52 53 0.0 0.0 0.00 1.61 0.00 100 1011.7
20260904074517 51 67 0.0 2.0 0.00 1.61 0.00 100 1011.6
20260904073035 52 75 0.0 0.0 0.00 1.61 0.00 100 1011.6
20260904071515 52 75 0.0 0.0 0.00 1.61 0.00 100 1011.5
20260904070016 52 75 0.0 1.0 0.00 1.61 1.61 100 1011.5
20260904064517 52 74 0.0 0.0 0.00 1.61 1.61 100 1011.5
20260904063009 53 74 0.0 1.0 0.00 1.61 1.61 100 1011.6
20260904061511 53 85 0.0 1.0 0.00 1.61 1.61 100 1011.5
20260904060009 53 85 0.0 1.0 0.00 1.61 1.61 100 1011.4
20260904054510 54 85 0.0 5.0 0.00 1.61 1.61 100 1011.5
20260904053007 54 108 0.0 0.0 0.00 1.61 1.61 100 1011.5
20260904051510 55 109 0.0 0.0 0.00 1.61 1.61 100 1011.6
20260904050007 55 109 0.0 0.0 0.00 1.61 1.61 100 1011.6
20260904044507 55 109 0.0 1.0 0.00 1.61 1.61 100 1011.5
20260904043005 55 109 0.0 3.0 0.00 1.61 1.61 100 1011.4
20260904041504 55 110 0.0 2.0 0.00 1.61 1.61 100 1011.4
20260904040003 56 112 0.0 1.0 0.00 1.61 1.61 100 1011.4
20260904034501 56 112 0.0 2.0 0.00 1.61 1.61 100 1011.2
20260904033114 56 114 0.0 3.0 0.00 1.61 1.61 100 1010.9
20260904031558 56 85 0.0 0.0 0.00 1.61 1.61 100 1010.9
20260904030100 56 85 0.0 0.0 0.00 1.61 1.61 100 1010.6
20260904024557 56 43 0.0 0.0 0.00 1.61 1.61 100 1010.6
20260904023055 57 42 0.0 1.0 0.00 1.61 1.61 100 1010.7
20260904021555 57 44 1.0 4.0 0.00 1.61 1.61 99 1010.6
20260904020101 58 99 0.0 4.0 0.00 1.62 1.61 100 1010.7
20260904014643 58 44 1.0 4.0 0.00 1.62 1.61 100 1010.7
20260904013105 58 95 0.0 0.0 0.00 1.62 1.61 99 1010.6
20260904011603 58 95 0.0 0.0 0.00 1.62 1.61 98 1010.7
20260904010058 59 95 1.0 4.0 0.01 1.62 1.61 98 1010.6
20260904004551 58 114 0.0 3.0 0.06 1.62 1.61 97 1010.5
20260904003058 58 114 0.0 3.0 0.06 1.62 1.61 97 1010.3
20260904001550 57 74 0.0 2.0 0.09 1.62 1.61 98 1010.4
20260904000050 58 95 1.0 3.0 0.12 1.61 1.60 98 1010.4
20260903234549 58 15 0.0 4.0 0.07 1.56 1.55 97 1010.5
20260903233049 58 332 1.0 4.0 0.07 1.56 1.55 95 1010.3
20260903231548 60 324 3.0 7.0 0.04 1.53 1.52 91 1010.4
20260903224548 62 342 3.0 7.0 0.00 1.49 1.48 82 1010.0
20260903223046 64 322 3.0 9.0 0.00 1.49 1.48 81 1010.0
20260903221545 65 195 5.0 12.0 0.00 1.49 1.48 73 1010.1
20260903220042 64 151 1.0 4.0 0.00 1.49 1.48 78 1010.0
20260903214544 63 126 1.0 6.0 0.00 1.49 1.48 79 1010.0
20260903213043 63 178 0.0 9.0 0.00 1.49 1.48 78 1010.3
20260903211534 61 126 3.0 7.0 0.00 1.49 1.48 85 1010.3
20260903210033 60 140 3.0 12.0 0.00 1.51 1.48 85 1010.4
20260903204531 60 142 3.0 9.0 0.00 1.51 1.48 85 1010.3
20260903203029 59 151 3.0 10.0 0.00 1.51 1.48 88 1010.3
20260903201532 59 132 2.0 13.0 0.00 1.51 1.48 88 1010.3
20260903200025 58 125 6.0 12.0 0.01 1.51 1.48 87 1010.2
20260903194527 58 112 6.0 13.0 0.01 1.51 1.48 89 1010.2
20260903193021 58 132 4.0 14.0 0.01 1.51 1.48 93 1010.3
20260903191519 57 74 2.0 6.0 0.01 1.51 1.48 94 1010.2
20260903190019 57 155 4.0 12.0 0.00 1.52 1.47 92 1010.4